Location: Newark
(45.8378°N, 5.5389°E)
Time: 23:19:04
(UTC+00:00)

YUBILEINY - Pass Details

Date: 20 December 2019
Orbit: 1478 x 1509 km, 82.5° (Epoch: 21 January)

Event Time Altitude Azimuth Distance (km) Brightness Sun altitude
Rises 20:09:56 0° 190° (S) 4,604 ? -43.2°
Enters shadow 20:11:26 - 191° (S) 4,095 ? -43.4°
Exits shadow 20:31:43 - 9° (N) 4,111 ? -46.9°
Sets 20:33:11 0° 10° (N) 4,610 ? -47.1°
